{"data":{"norad_id":51983,"intl_designator":"2022-025AD","name":"STARLINK-3655","alt_names":[],"object_type":"PAYLOAD","status":"ACTIVE","operator":null,"country":"US","launch_date":"2022-03-09","launch_site_code":"AFETR","launch_vehicle":null,"mission":null,"orbit_class":"UNKNOWN","rcs_meters":null,"size_class":null,"mass_kg":null,"dimensions":null,"purposes":["comms"],"wikipedia_slug":null,"has_3d_model":false,"image_url":null,"decayed_at":null,"tle_current":{"epoch":"2026-09-19T23:06:02.209248Z","epoch_age_seconds":102523,"freshness":"FRESH","line1":"1 51983U 22025AD  26262.96252557  .00005911  00000+0  17777-3 0  9993","line2":"2 51983  53.1576 237.9571 0002020  65.5879 294.5335 15.35841620250501","mean_motion":15.3584162,"eccentricity":0.000202,"inclination_deg":53.1576,"raan_deg":237.9571,"arg_perigee_deg":65.5879,"mean_anomaly_deg":294.5335,"bstar":0.00017777,"rev_number":25050,"period_min":93.759667744907,"perigee_km":457.04080884311,"apogee_km":459.80277859578,"semimajor_km":6836.5587937194,"source":"CELESTRAK","updated_at":"2026-09-20T09:00:39.979530Z"}}}